Location: *
(60.1759°S, 155.0663°W)
Time: 01:20:31
(UTC+00:00)

Cosmos 1634 Rocket - Pass Details

Date: 17 September 2019
Orbit: 961 x 991 km, 82.9° (Epoch: 12 October)

Event Time Altitude Azimuth Distance (km) Brightness Sun altitude
Exits shadow 13:50:39 20° 344° (NNW) 2,095 5.3 -19.0°
Maximum altitude 13:55:11 84° 257° (WSW) 1,004 4.0 -18.5°
Drops below altitude 10° 14:01:33 10° 167° (SSE) 2,757 6.9 -17.9°
Sets 14:04:04 0° 166° (SSE) 3,705 7.7 -17.6°
